Regional Weather Roundup
Issued by NWS

Home | Current Version | Previous Version | Graphics & Text | Print | Product List | Glossary On
Versions: 1 2 3 4 5 6 7 8 9 10 11 12 13 14 15 16 17 18 19 20 21 22 23 24 25 26 27 28 29 30 31 32 33 34 35 36 37 38 39 40 41 42 43 44 45 46 47 48 49 50
000
ASUS45 KCYS 301610
RWRWY

WYOMING REGIONAL WEATHER ROUNDUP
NATIONAL WEATHER SERVICE CHEYENNE WY
1000 AM MDT SAT JUL 30 2016

NOTE:  "FAIR" INDICATES FEW OR NO CLOUDS BELOW 12,000 FEET
WITH NO SIGNIFICANT WEATHER AND/OR OBSTRUCTIONS TO VISIBILITY.

WYZ001-301700-
YELLOWSTONE NATIONAL PARK

CITY           SKY/WX    TMP DP  RH WIND       PRES   REMARKS
LK YELLOWSTONE   N/A     61  49  64 SE5       30.22S
W YELLOWSTONE  NOT AVBL

$$
WYZ002>013-054>058-071-098>099-301700-
NORTHERN WYOMING

CITY           SKY/WX    TMP DP  RH WIND       PRES   REMARKS
JACKSON        SUNNY     64  39  39 CALM      30.13F
CODY           FAIR     N/A N/A N/A MISG        N/A
GREYBULL       FAIR      79  47  32 CALM      29.90F
WORLAND        FAIR      83  45  26 SE5       29.91F
SHERIDAN       FAIR      76  51  41 CALM      29.91F
BUFFALO        FAIR      78  54  43 E7        29.98F
GILLETTE       FAIR      83  47  28 SW9       29.94F
HULETT         FAIR      77  55  47 MISG      29.98S
NEWCASTLE      FAIR      73  54  49 S6        30.00S

$$
WYZ014>020-022>026-101>103-301700-
CENTRAL WYOMING

CITY           SKY/WX    TMP DP  RH WIND       PRES   REMARKS
BIG PINEY      FAIR      68  41  37 VRB3      30.21S
PINEDALE       FAIR      68  41  37 E3        30.21S
DUBOIS         FAIR      68  43  40 NE3       30.14F
LANDER         FAIR      74  47  38 N5        30.04F
RIVERTON       FAIR      72  51  47 SE7       30.04F
CASPER         FAIR      76  57  51 SW13      30.04F
DOUGLAS        FAIR      74  56  53 VRB3      30.04F

$$
WYZ021-027>030-104>119-301700-
SOUTHERN WYOMING

CITY           SKY/WX    TMP DP  RH WIND       PRES   REMARKS
EVANSTON       FAIR      77  34  21 VRB7      30.20S
KEMMERER         N/A     75  32  20 S3        30.21S
FORT BRIDGER   FAIR      74  33  22 NW3       30.22F
ROCK SPRINGS   FAIR      73  43  33 SW5       30.18S
DIXON          FAIR      72  34  24 SE6       30.20F
RAWLINS        FAIR      70  51  51 VRB6      30.17F
SARATOGA       FAIR      70  43  37 SE3       30.21S
LARAMIE        FAIR      68  52  56 CALM      30.20S
CHEYENNE       FAIR      67  59  75 CALM      30.12F
TORRINGTON     FAIR      75  63  66 VRB7      30.00F
PINE BLUFFS    FAIR      72  61  68 SW5       30.07S

$$



USA.gov is the U.S. government's official web portal to all federal, state and local government web resources and services.